This is the latest recevied weather packets stored in our database for station/object KI6PPU. If no packets are shown the sender has not sent any weather packets the latest 10 day(s).
| Time | Temp. | Humidity | Pressure | Rain* | Wind** | Luminosity | Snow |
|---|---|---|---|---|---|---|---|
| 1777952475 | 10° C | 98% | 1017.7 hPa | 5.33 mm | - | 0 W/m² | - |
| 1777952171 | 10° C | 98% | 1018 hPa | 3.56 mm | - | 0 W/m² | - |
| 1777951870 | 10° C | 98% | 1017.8 hPa | 3.05 mm | - | 0 W/m² | - |
| 1777951567 | 10° C | 98% | 1017.8 hPa | 3.05 mm | - | 0 W/m² | - |
| 1777951263 | 10° C | 98% | 1017.7 hPa | 3.56 mm | - | 0 W/m² | - |
| 1777950961 | 10° C | 98% | 1017.4 hPa | 6.1 mm | - | 0 W/m² | - |
| 1777950657 | 10° C | 98% | 1017.6 hPa | 6.6 mm | - | 0 W/m² | - |
| 1777950354 | 10° C | 98% | 1017.6 hPa | 5.33 mm | - | 0 W/m² | - |
| 1777950050 | 10.56° C | 98% | 1017.7 hPa | 4.83 mm | - | 0 W/m² | - |
| 1777949746 | 10.56° C | 98% | 1018 hPa | 4.83 mm | - | 0 W/m² | - |
| 1777949445 | 10.56° C | 98% | 1018 hPa | 3.05 mm | - | 0 W/m² | - |
| 1777949141 | 10.56° C | 98% | 1018 hPa | 3.56 mm | - | 0 W/m² | - |
| 1777948833 | 10° C | 98% | 1017.6 hPa | 4.32 mm | - | 0 W/m² | - |
| 1777948530 | 10.56° C | 98% | 1017.6 hPa | 4.32 mm | - | 0 W/m² | - |
| 1777948228 | 10° C | 98% | 1017.3 hPa | 4.83 mm | - | 0 W/m² | - |
| 1777947925 | 10.56° C | 98% | 1017.2 hPa | 4.83 mm | - | 0 W/m² | - |
| 1777947622 | 10.56° C | 98% | 1017.1 hPa | 3.05 mm | - | 0 W/m² | - |
| 1777947319 | 10.56° C | 98% | 1017.2 hPa | 2.29 mm | - | 0 W/m² | - |
| 1777947015 | 10.56° C | 98% | 1017.4 hPa | 2.29 mm | - | 0 W/m² | - |
| 1777946715 | 10.56° C | 98% | 1017.1 hPa | 4.32 mm | - | 0 W/m² | - |
| 1777946413 | 10.56° C | 98% | 1017 hPa | 4.83 mm | - | 0 W/m² | - |
| 1777946109 | 10.56° C | 97% | 1017.2 hPa | 3.56 mm | - | 1 W/m² | - |
| 1777945806 | 10.56° C | 97% | 1017.5 hPa | 4.32 mm | - | 2 W/m² | - |
| 1777945503 | 10.56° C | 97% | 1017.6 hPa | 4.32 mm | - | 2 W/m² | - |
| 1777945201 | 10° C | 97% | 1017.6 hPa | 3.56 mm | - | 2 W/m² | - |
* Rain latest hour (hover to see other rain measurements)
** Current wind speed in m/s (hover to see current wind gust speed)